Regional Weather Roundup
Issued by NWS

Home | Current Version | Previous Version | Text Only | Print | Product List | Glossary On
Versions: 1 2 3 4 5 6 7 8 9 10 11 12 13 14 15 16 17 18 19 20 21 22 23 24 25 26 27 28 29 30 31 32 33 34 35 36 37 38 39 40 41 42 43 44 45 46 47 48 49 50
000
ASUS44 KFWD 121615
RWRTX
NORTH TEXAS HOURLY WEATHER ROUNDUP
NATIONAL WEATHER SERVICE FORT WORTH TX
1100 AM CDT SAT JUL 12 2014

NOTE: "FAIR" INDICATES FEW OR NO CLOUDS BELOW 12,000 FEET WITH NO
SIGNIFICANT WEATHER AND/OR OBSTRUCTIONS TO VISIBILITY.

TXZ118-119-121700-
DALLAS/FORT WORTH METROPLEX

CITY           SKY/WX    TMP DP  RH WIND       PRES   REMARKS
DFW AIRPORT    SUNNY     90  56  31 SW10      30.16F
DALLAS LOVE    MOSUNNY   89  58  34 S7        30.17F
FTW MEACHAM    MOSUNNY   89  60  37 SW8       30.16F
DAL-EXECUTIVE  SUNNY     90  60  36 VRB3      30.17F
FTW-ALLIANCE   MOSUNNY   88  59  37 S9        30.16F
FTW-NAS-JRB    SUNNY     91  57  31 SW13      30.20F
FTW-SPINKS     SUNNY     88  57  35 S8        30.19F
ARLINGTON      SUNNY     89  53  29 S8        30.17F
GRAND PRAIRIE  SUNNY     88  55  33 S7        30.19S
ADDISON        SUNNY     88  55  33 SW6       30.17F
MESQUITE       SUNNY     88  61  40 S6        30.17F
LANCASTER      SUNNY     88  57  34 SW6       30.19S
$$

TXZ091>094-102>105-117-120-121-131>134-121700-
NORTH CENTRAL TEXAS

CITY           SKY/WX    TMP DP  RH WIND       PRES   REMARKS
SHRMAN/DENISON SUNNY     90  56  32 S14       30.17F
GAINESVILLE    SUNNY     90  55  30 SW13      30.18F
BOWIE          MOSUNNY   85  64  50 S9        30.17F
BRIDGEPORT     MOSUNNY   86  54  33 SW10      30.18F
DECATUR        MOSUNNY   85  58  40 SW9       30.18S
DENTON         MOSUNNY   89  56  32 SW8       30.16F
MCKINNEY       SUNNY     91  55  29 S10       30.17F
GREENVILLE     SUNNY     90  61  37 SW7       30.17F
ROCKWALL       SUNNY     88  63  43 W8        30.16F
TERRELL        SUNNY     90  61  37 SW8       30.17F HX  90
WAXAHACHIE     SUNNY     87  58  37 SW9       30.19F
CLEBURNE       SUNNY     86  63  45 SW7       30.20F
GRANBURY       SUNNY     88  61  39 SE6       30.19F
$$

TXZ083>090-098>101-113>116-127>130-139>142-154-155-121700-
WESTERN NORTH TEXAS

CITY           SKY/WX    TMP DP  RH WIND       PRES   REMARKS
WICHITA FALLS  SUNNY     88  65  46 SW15G22   30.14F HX  90
WF-KICKAPOO    SUNNY     87  60  40 SW15G23   30.16F
VERNON         SUNNY     89  61  38 SW13      30.16F
ABILENE        SUNNY     87  55  33 S16G22    30.19F
BRECKENRIDGE   SUNNY     90  57  32 SW13      30.17F
MINERAL WELLS  SUNNY     85  63  47 S9        30.17F
STEPHENVILLE   SUNNY     86  53  32 SW6       30.23S
COMANCHE       SUNNY     86  57  36 S3        30.20S
BROWNWOOD      SUNNY     84  59  42 S8        30.20S HAZE
COLEMAN        SUNNY     84  58  42 S14       30.20F
BRADY          SUNNY     84  61  45 S7        30.20F
$$

TXZ143>147-156>162-174-175-121700-
CENTRAL TEXAS

CITY           SKY/WX    TMP DP  RH WIND       PRES   REMARKS
WACO           SUNNY     86  65  49 CALM      30.19S
WACO-TSTC      SUNNY     86  66  51 SW5       30.19S
WACO-MCGREGOR  SUNNY     88  63  42 SE3       30.20F
HILLSBORO      SUNNY     85  64  49 CALM      30.19S
CORSICANA      SUNNY     88  64  44 SW8       30.19S
MEXIA          SUNNY     85  69  60 SW5       30.18S
HEARNE         SUNNY     89  75  65 SE3       30.19S HX  99
CAMERON        SUNNY     84  71  63 W3        30.19S
TEMPLE         SUNNY     84  64  51 SE5       30.20S
KILLEEN        NOT AVBL
KILLEEN-SKYLRK SUNNY     86  63  45 CALM      30.20R
FORT HOOD      SUNNY     88  65  46 SE7       30.19S HX  90
GATESVILLE     SUNNY     84  63  48 S6        30.22S
HAMILTON       SUNNY     85  60  42 S5        30.21F
LAMPASAS       SUNNY     83  65  54 S5        30.19S
$$

TXZ095>097-106>112-122>126-135>138-148>153-164>167-121700-
EAST TEXAS

CITY           SKY/WX    TMP DP  RH WIND       PRES   REMARKS
PARIS          SUNNY     90  68  48 SW6       30.17F HX  93
SULPHUR SPRNGS MOSUNNY   91  66  43 SW8       30.18F HX  93
CLARKSVILLE    CLOUDY    91  69  48 SW3       30.16F HX  95
MOUNT PLEASANT SUNNY     88  69  53 W3        30.18S HX  92
GILMER           N/A    N/A N/A N/A MISG        N/A
MINEOLA        CLOUDY    90  66  45 W3        30.18F HX  92
TYLER          SUNNY     88  70  55 CALM      30.18S HX  93
LONGVIEW       SUNNY     89  72  56 N6        30.16F HX  96
MARSHALL         N/A     91  73  55 CALM      30.19S HX  99
ATHENS         SUNNY     86  70  58 CALM      30.17S HX  90
PALESTINE      SUNNY     84  66  54 S5        30.20S
JACKSONVILLE   SUNNY     88  70  56 W3        30.21S HX  93
HENDERSON      CLOUDY    89  71  54 SW3       30.18F HX  95
NACOGDOCHES    SUNNY     88  73  62 CALM      30.18S HX  96
LUFKIN         SUNNY     90  73  57 CALM      30.17F HX  98
$$

SUPPLEMENTAL OBSERVATIONS (CENTRAL)

CITY           SKY/WX    TMP DP  RH WIND       PRES   REMARKS
LAKE TEXOMA      N/A     88  54  31 SW14        N/A
CADDO GRASSLND   N/A     91  68  46 SW6         N/A  HX  95
PAT MAYSE LAKE   N/A     86  66  51 SW3         N/A
GREENVILLE       N/A     91  64  40 S8          N/A  HX  93
CEDAR HILL       N/A     90  59  35 SW3         N/A
PALESTINE        N/A     90  72  55 SW2         N/A  HX  96
LAKE LIMESTONE   N/A     88  79  74 S5          N/A  HX 102
MCGREGOR         N/A     90  63  40 SW3         N/A  HX  90
TEMPLE           N/A     86  68  54 S6          N/A
$$

SUPPLEMENTAL OBSERVATIONS (WEST)

CITY           SKY/WX    TMP DP  RH WIND       PRES   REMARKS
MILLERS CREEK    N/A     88  66  48 SW13G21     N/A  HX  90
POSSUM KINGDOM   N/A     91  55  29 S9          N/A
LBJ GRASSLAND    N/A     88  63  42 S7          N/A
GRANBURY         N/A     90  61  37 S7          N/A
COMANCHE         N/A     88  63  42 S9          N/A
HAMBY            N/A     88  54  31 S16         N/A
COLORADO BEND    N/A     84  61  45 S6          N/A
$$

SUPPLEMENTAL OBSERVATIONS (EAST)

CITY           SKY/WX    TMP DP  RH WIND       PRES   REMARKS
TEXARKANA        N/A     93  72  49 W3          N/A  HX 100
LINDEN           N/A     91  70  49 N3          N/A  HX  97
LUFKIN           N/A     90  82  79 MISG        N/A  HX 111
N SABINE NF      N/A     91  75  59 MISG        N/A  HX 102
$$

SUPPLEMENTAL OBSERVATIONS ARE A COLLECTION OF AUTOMATED INSTRUMENTS
THAT ARE MAINTAINED BY A VARIETY OF FEDERAL AND STATE AGENCIES.
CERTAIN ELEMENTS...SUCH AS HUMIDITY VALUES AND SUSTAINED WIND
SPEEDS...MAY BE APPROXIMATED.




USA.gov is the U.S. government's official web portal to all federal, state and local government web resources and services.